Regional Weather Roundup
Issued by NWS

Home | Current Version | Previous Version | Graphics & Text | Print | Product List | Glossary On
Versions: 1 2 3 4 5 6 7 8 9 10 11 12 13 14 15 16 17 18 19 20 21 22 23 24 25 26 27 28 29 30 31 32 33 34 35 36 37 38 39 40 41 42 43 44 45 46 47 48 49 50
000
ASUS43 KDTX 080310
RWRMI
MICHIGAN HOURLY REGIONAL WEATHER ROUNDUP
NATIONAL WEATHER SERVICE DETROIT/PONTIAC MI
1000 PM EST SUN MAR 07 2021

NOTE: "FAIR" INDICATES FEW OR NO CLOUDS BELOW 12,000 FEET WITH NO
SIGNIFICANT WEATHER AND/OR OBSTRUCTION TO VISIBILITY.

MIZ047>049-052>055-059>063-066>070-074>076-081>083-080400-
SOUTHEAST LOWER MICHIGAN

CITY           SKY/WX    TMP DP  RH WIND       PRES   REMARKS
ADRIAN         PTCLDY    29  14  53 CALM      30.42S
ALMA           MOCLDY    32  22  66 SE5       30.38F WCI  27
ANN ARBOR      MOCLDY    24  17  74 CALM      30.41S
BAD AXE        MOCLDY    23  19  86 S5        30.41S WCI  17
CARO           MOCLDY    25  16  66 E5        30.40F WCI  20
DETROIT CITY   MOCLDY    29  21  72 S3        30.43S
DETROIT        MOCLDY    29  21  72 S3        30.43S
FLINT          PTCLDY    26  13  57 S5        30.39F WCI  20
GROSSE ILE     MOCLDY    31  27  87 S7        30.43S WCI  24
HILLSDALE      PTCLDY    28  11  48 S3        30.38S
HOWELL         MOCLDY    27  11  51 CALM      30.40S

CITY           SKY/WX    TMP DP  RH WIND       PRES   REMARKS
JACKSON        PTCLDY    29  11  47 CALM      30.39S
LAMBERTVILLE   MOCLDY    29  20  69 CALM      30.43S
LANSING        CLOUDY    33  14  45 SE5       30.39S WCI  29
LAPEER         MOCLDY    27  19  74 SE5       30.41S WCI  21
MASON          PTCLDY    29  19  63 SE6       30.39F WCI  23
MONROE         MOCLDY    27  23  84 S5        30.42S WCI  22
MT. CLEMENS    MOCLDY    24  23  95 S5        30.41S WCI  18
PONTIAC        MOCLDY    25  14  63 CALM      30.39S
PORT HOPE        N/A     25  17  72 S5        30.41R WCI  19
PORT HURON     CLEAR     21  16  79 CALM      30.44R
TRI CITIES     CLOUDY    31  16  54 S7        30.39F WCI  24
MIDLAND        PTCLDY    26  19  73 E3        30.37F
TROY           MOCLDY    30  21  68 S3        30.44S
SAGINAW HB     PTCLDY    26  17  67 SE5       30.39F WCI  21
$$
MIZ043>046-050>051-056>058-064>065-071>073-077>080-080400-
SOUTHWEST LOWER MICHIGAN

CITY           SKY/WX    TMP DP  RH WIND       PRES   REMARKS
BATTLE CREEK   PTCLDY    35  13  40 S6        30.39S WCI  30
BENTON HARBOR  CLEAR     40  20  44 S8        30.36F WCI  34
BIG RAPIDS     PTCLDY    30  14  50 S3        30.33S
COLDWATER      PTCLDY    29  17  61 SE5       30.39S WCI  23
FREMONT        FAIR      33  16  49 SE3       30.33F
HOLLAND        CLEAR     32  22  66 S6        30.36F WCI  26
GRAND RAPIDS   PTCLDY    31  16  54 S5        30.36F WCI  26
IONIA          FAIR      29  16  58 SE8       30.36F WCI  21
KALAMAZOO      PTCLDY    37  14  38 S6        30.38S WCI  32
LUDINGTON      CLEAR     34  21  57 SE6       30.30S WCI  29
MARSHALL       MOCLDY    34  12  41 CALM      30.39S
MOUNT PLEASANT MOCLDY    32  17  52 SE5       30.36F WCI  27
MUSKEGON       PTCLDY    30  20  66 SE7       30.34F WCI  23
SOUTH HAVEN    CLEAR     38  22  52 S7        30.36F WCI  32
$$
MIZ016>042-080400-
NORTHERN LOWER MICHIGAN

CITY           SKY/WX    TMP DP  RH WIND       PRES   REMARKS
ALPENA         MOCLDY    25  16  68 SE8       30.34F WCI  16
BEAVER ISLAND  MOCLDY    26  19  76 CALM      30.27S
BELLAIRE       MOCLDY    35   9  34 S6        30.30R WCI  30
CADILLAC       MOCLDY    31  12  44 S6        30.28F WCI  25
CHARLEVOIX     MOCLDY    34  13  42 S5        30.28R WCI  30
FRANKFORT      CLEAR     36  16  44 S6        30.28S WCI  31
GAYLORD        MOCLDY    32  11  41 S12       30.26F WCI  23
GRAYLING       CLOUDY    29  12  49 S9        30.29F WCI  21
HARBOR SPRINGS CLOUDY    32  11  41 CALM      30.28S
HOUGHTON LAKE  CLOUDY    29  11  47 S8        30.32F WCI  21
MANISTEE       CLEAR     34  16  47 SE6       30.30S WCI  29
OSCODA         MOCLDY    25  19  80 S3        30.38F
PELLSTON       CLOUDY    29  19  66 CALM      30.28F
ROGERS CITY    CLOUDY    26  17  71 S7        30.32F WCI  18
TRAVERSE CITY  MOCLDY    35  13  40 S6        30.28S WCI  30
$$
MIZ007>008-015-080400-
EASTERN UPPER MICHIGAN

CITY           SKY/WX    TMP DP  RH WIND       PRES   REMARKS
KINROSS        CLOUDY    22  17  81 SE9       30.28F WCI  12
MACKINAC ISLAN CLOUDY    30  17  57 SE9       30.27S WCI  21
NEWBERRY       MOCLDY    25  17  73 SE9       30.22F WCI  15
S. S. MARIE    CLOUDY    21  11  65 E8        30.29F WCI  11
MUNISING         N/A     33  25  72 S12G29    30.15S WCI  24
$$
MIZ004>006-011>014-085-080400-
CENTRAL UPPER MICHIGAN

CITY           SKY/WX    TMP DP  RH WIND       PRES   REMARKS
MANISTIQUE     PTCLDY    32  27  83 S13       30.23F WCI  22
ESCANABA       CLOUDY    32  29  88 S6        30.22F WCI  26
MENOMINEE      PTCLDY    33  28  81 S7        30.22S WCI  27
SAWYER-GWINN   CLOUDY    30  27  86 S20       30.12S WCI  18
$$
MIZ001>003-009>011-084-080400-
WESTERN UPPER MICHIGAN

CITY           SKY/WX    TMP DP  RH WIND       PRES   REMARKS
IRON MOUNTAIN  MOCLDY    32  26  78 SE8       30.13F WCI  25
HOUGHTON       CLOUDY    40  27  59 S17       30.00F WCI  31
IRONWOOD       CLEAR     43  28  55 S22G28    29.98F
$$

ABBREVIATIONS USED IN REMARKS
   TC - TEMPERATURE IN CELSIUS
  WCI - WIND CHILL INDEX
   HX - HEAT INDEX
  VSB - VISIBILITY




USA.gov is the U.S. government's official web portal to all federal, state and local government web resources and services.